Tracking 19920 objects as of 15-Oct-2019
HD Live streaming from Space Station
objects crossing your sky now

IRIDIUM 33 DEB

Track IRIDIUM 33 DEB now!
10-day predictions


NORAD ID: 34705
Int'l Code: 1997-051LC
Perigee: 616.0 km
Apogee: 731.7 km
Inclination: 86.5 °
Period: 98.1 minutes
Semi major axis: 7044 km
RCS: 0.0026 m2 (small)
Launch date: September 14, 1997
Source: United States (US)
Launch site: TYURATAM MISSILE AND SPACE COMPLEX (TTMTR)

Note: This is SATELLITE DEBRIS
aabbcc
Your satellite tracking list
Your tracking list is empty




NASA's NSSDC Master Catalog

Two Line Element Set (TLE):
1 34705U 97051LC  19287.02025753 +.00003216 +00000-0 +52638-3 0  9991
2 34705 086.4657 308.0781 0082108 147.2226 213.4122 14.68227269559918
Source of the keplerian elements: AFSPC